GFSNE_sfc_rhum_273.txt.gz
RH
98 96 94 94 93 91 90 82 83 85 77 66 81 88 88 95 94 94 95 100 100 100 100 100 99 99 99 99 99 97 96 95 95 98 98 93 90 88
97 98 98 96 95 94 94 90 92 92 90 69 66 88 92 94 95 97 95 100 100 100 100 100 100 100 99 99 99 99 99 97 99 97 92 91 90 87
94 96 95 97 96 96 96 95 93 90 93 85 78 82 91 89 92 98 99 99 100 100 100 100 100 100 100 100 100 100 100 97 95 94 92 91 88 84
92 94 93 90 96 98 98 96 96 96 98 96 89 92 90 93 91 95 99 99 99 99 100 100 100 100 100 100 100 98 97 96 96 94 91 88 85 83
88 90 90 93 95 95 96 97 98 96 97 97 93 93 94 100 100 99 99 99 99 99 100 100 100 99 99 99 98 97 97 96 95 94 91 87 83 79
89 89 89 92 92 93 94 95 97 98 96 97 99 97 98 99 100 99 100 100 99 99 99 99 99 99 99 98 97 96 96 94 92 90 88 88 84 79
87 86 88 91 94 96 94 95 97 96 98 98 98 100 100 100 100 100 100 100 100 99 100 99 99 99 99 98 97 96 95 92 90 87 84 82 83 83
87 83 85 86 88 92 90 90 98 99 98 98 97 96 93 99 100 100 100 100 100 100 100 100 99 100 99 99 97 96 93 90 88 85 82 82 82 84
86 84 80 68 83 87 84 85 88 95 100 99 97 95 97 99 99 99 100 100 100 100 98 100 99 100 100 99 96 95 93 92 88 84 82 84 87 88
86 88 86 85 84 91 87 83 83 85 90 94 98 98 98 98 98 99 100 100 100 100 98 100 100 100 100 99 93 92 90 87 87 89 86 86 88 88
84 84 84 85 86 84 81 85 82 85 83 89 98 99 99 99 100 100 100 100 100 100 100 100 100 99 99 100 99 91 90 89 88 88 87 87 90 92
87 84 85 90 91 88 90 93 96 91 94 94 96 98 99 98 99 99 100 100 100 100 100 100 99 99 100 100 100 100 99 92 91 89 88 90 93 98
85 87 91 88 88 88 89 95 94 90 92 95 95 95 98 100 100 100 100 100 100 100 100 99 99 99 99 99 99 99 100 100 99 99 96 95 93 92
88 87 85 87 82 87 92 91 91 92 93 96 95 94 96 100 100 100 100 100 100 100 100 95 99 97 98 99 99 100 99 99 98 98 98 98 98 98
86 87 88 91 90 90 92 93 94 95 94 98 94 94 96 100 100 100 100 99 99 99 99 96 97 96 95 97 98 99 98 99 98 98 98 98 98 98
84 87 89 94 94 97 97 94 95 95 90 94 95 94 99 100 100 100 100 100 99 99 99 96 94 92 98 95 93 97 97 97 98 98 98 98 98 98
92 86 83 87 89 89 90 90 93 93 94 93 97 99 99 99 99 100 100 100 99 99 99 99 96 94 94 92 97 96 97 97 98 98 96 97 98 98
90 92 94 93 93 93 96 96 94 97 96 96 96 98 99 99 99 100 100 99 99 99 98 98 97 94 90 97 88 97 97 95 97 97 97 94 97 98
92 90 92 95 95 94 96 98 97 98 98 98 98 98 99 99 99 99 99 99 99 98 98 97 94 88 92 96 98 89 93 96 96 97 97 97 96 98
89 94 94 94 94 92 94 96 98 98 98 99 99 99 100 99 99 99 98 98 98 98 98 98 98 94 87 95 96 98 90 95 94 96 96 96 97 97
88 94 93 94 94 96 97 98 98 98 98 99 99 99 100 99 99 99 99 99 98 97 96 97 98 94 93 85 93 97 98 96 90 89 96 94 98 98
90 94 94 95 94 95 98 98 98 98 98 99 99 100 100 99 99 98 98 98 98 94 96 96 97 95 87 79 93 95 96 98 97 98 97 90 95 98
96 96 94 96 96 98 98 97 97 98 98 98 99 99 100 99 99 98 98 97 95 95 93 96 96 93 93 87 88 95 96 96 96 95 96 90 90 89

GFSNE_sfc_rhum_276.txt.gz
RH
97 97 97 96 98 97 96 95 96 96 88 85 81 78 81 83 82 84 86 92 95 94 92 92 92 93 94 98 98 99 98 98 97 94 94 98 95 93
95 95 95 95 96 97 97 95 95 95 95 81 79 82 81 90 87 89 84 96 100 100 100 100 98 97 99 100 100 100 99 99 98 96 97 97 93 90
89 90 90 90 94 95 97 98 98 98 98 88 83 84 86 90 91 85 89 89 94 100 100 100 100 100 100 100 100 100 100 99 99 99 96 94 92 91
89 91 89 87 92 92 94 94 95 95 98 96 88 88 87 87 94 94 93 98 99 100 100 100 100 100 100 100 100 100 100 100 98 97 95 93 91 88
89 91 91 91 92 94 94 94 95 92 96 96 93 88 90 88 90 97 99 99 100 99 100 100 100 100 100 100 100 100 100 99 98 97 96 94 91 85
89 89 84 91 94 93 90 91 89 96 96 93 93 95 92 91 96 96 100 100 100 99 100 100 100 100 99 99 99 99 99 97 97 97 95 93 91 85
88 84 84 86 86 90 89 90 90 94 97 97 97 97 96 96 97 99 100 100 100 100 99 99 99 98 99 98 98 97 98 97 96 93 91 88 89 87
85 86 84 82 83 88 89 90 92 94 96 97 97 98 96 98 98 99 100 100 100 100 100 100 99 100 99 99 97 97 97 97 96 92 88 87 88 89
82 82 78 68 86 84 84 84 82 85 92 98 96 97 97 98 98 98 98 99 99 100 98 100 100 100 100 99 97 97 96 95 94 91 90 90 91 93
85 84 85 83 82 86 81 82 80 78 78 78 87 89 92 96 98 98 98 99 100 100 99 100 100 100 100 99 95 95 94 92 90 90 90 92 92 92
86 80 84 85 85 87 91 90 90 91 80 82 84 87 91 98 98 99 100 100 100 100 100 100 100 99 100 100 99 94 94 94 95 96 97 97 93 95
76 72 77 81 82 82 85 88 92 93 93 92 91 87 89 92 96 98 99 99 100 100 100 100 100 99 100 100 100 100 100 99 98 97 94 92 94 98
82 85 84 86 87 78 77 82 89 92 95 98 91 87 90 96 97 100 100 99 100 100 100 100 100 99 99 100 100 100 100 100 100 99 94 95 98 98
84 86 86 84 86 88 90 84 87 91 98 98 92 90 89 90 98 100 100 100 100 100 100 97 100 98 98 100 100 100 99 99 97 99 99 98 100 100
90 92 91 85 87 91 89 90 91 95 96 98 95 93 92 91 98 100 100 99 99 100 99 96 98 97 96 96 98 99 98 98 98 98 96 96 96 97
86 88 90 90 90 92 94 93 92 93 97 97 97 96 93 97 99 99 99 99 100 99 99 96 94 93 97 94 93 97 95 94 98 97 96 96 96 97
91 91 90 89 88 87 88 91 92 92 97 98 98 98 98 97 98 99 99 99 99 99 99 98 95 93 94 92 96 95 96 96 97 96 93 96 97 97
89 91 93 91 92 92 94 92 91 96 94 97 97 97 98 98 98 99 99 99 99 98 98 98 95 91 86 95 88 96 96 96 96 96 92 92 96 97
91 92 94 95 94 92 92 94 94 90 95 98 97 97 98 98 99 98 99 99 99 98 98 97 96 88 90 93 97 93 94 96 95 95 94 93 94 96
87 94 92 90 91 94 92 92 94 97 98 98 98 98 99 98 99 98 99 98 98 98 98 98 97 92 88 92 93 97 90 93 90 94 96 95 96 96
88 92 91 93 92 92 94 94 95 96 97 98 98 98 98 99 99 99 99 98 98 97 97 97 97 94 92 84 93 96 98 95 85 85 90 88 89 91
92 92 89 92 94 94 95 96 96 96 97 99 99 99 99 99 99 99 99 97 97 96 95 96 96 92 80 76 91 94 95 97 97 98 95 81 86 93
96 94 93 95 96 97 95 97 96 96 97 98 98 99 100 99 100 99 98 95 95 95 94 94 93 88 92 86 87 94 96 94 91 91 96 92 89 89

GFSNE_sfc_rhum_279.txt.gz
RH
93 94 95 94 95 95 96 97 98 96 82 66 64 62 61 65 67 67 71 83 92 93 92 92 90 90 90 90 91 92 94 96 97 99 97 97 96 96
80 84 83 85 89 92 94 93 96 98 96 68 64 68 70 74 76 79 73 88 92 98 100 100 98 96 94 94 94 95 97 98 99 99 98 97 97 98
75 78 81 79 87 86 90 89 93 94 97 88 78 81 83 85 81 80 82 78 79 100 100 100 100 100 100 99 100 100 100 100 100 99 99 98 98 96
72 74 75 75 82 88 90 89 90 90 96 96 88 88 85 77 80 81 75 73 80 92 100 100 100 100 100 100 100 100 100 100 100 100 100 99 97 94
71 73 72 72 88 88 85 86 83 78 82 92 92 85 82 84 79 75 80 81 84 94 99 100 100 100 100 100 100 100 100 100 100 100 100 100 98 95
72 72 70 70 74 78 73 76 72 78 78 84 89 91 89 83 82 91 96 92 91 91 98 98 99 99 99 100 100 99 99 100 99 99 99 99 97 93
68 61 67 73 80 81 74 76 76 75 81 83 87 93 97 97 97 98 98 96 92 98 98 97 95 95 96 98 98 99 98 98 98 97 96 95 96 94
65 63 62 68 69 80 83 88 84 76 74 76 82 86 87 94 97 98 98 99 100 99 99 99 98 98 98 98 99 98 98 97 97 95 94 94 95 96
62 63 59 52 71 65 72 79 74 82 85 76 77 73 78 78 86 92 97 97 98 97 99 100 99 99 99 98 98 98 97 96 94 95 94 94 96 97
66 69 72 71 71 79 77 78 76 74 74 70 73 72 72 73 79 85 93 97 98 99 99 100 100 100 99 99 95 96 96 95 94 94 94 97 98 98
70 71 74 73 75 83 80 80 78 83 74 84 87 87 87 80 86 87 98 100 100 100 100 100 100 100 100 100 99 95 94 94 95 96 95 97 98 100
72 70 78 80 85 85 83 84 89 92 92 93 89 87 83 76 86 88 90 96 100 100 100 100 100 100 100 100 100 100 100 100 100 100 99 99 100 99
80 81 75 80 84 85 86 85 92 95 98 100 98 99 98 99 99 100 97 99 100 100 100 100 100 100 99 99 100 100 100 100 100 100 98 98 100 99
82 82 76 81 85 87 84 85 89 92 98 100 100 100 100 100 100 100 100 100 100 100 100 100 100 100 100 98 99 99 99 99 100 100 100 100 100 100
84 87 91 89 87 85 82 86 89 89 97 100 100 100 100 98 100 100 98 98 99 100 99 99 99 99 99 97 98 99 96 97 98 98 99 100 100 100
82 82 83 90 89 88 85 81 81 80 88 93 96 97 91 90 93 92 98 98 100 100 98 97 96 94 97 96 93 97 94 94 97 97 99 100 100 100
86 82 83 81 81 80 79 80 83 82 85 92 95 97 95 86 84 92 98 99 99 98 98 97 96 94 96 92 95 95 97 95 96 97 97 98 100 100
83 85 89 90 89 86 87 88 87 86 84 83 86 91 94 93 88 95 100 99 99 97 95 97 96 96 93 95 87 95 94 93 96 99 98 91 95 99
83 89 92 92 91 86 85 86 90 85 78 85 92 96 97 97 98 97 100 100 100 96 96 96 97 96 95 93 95 90 90 93 96 98 97 96 92 98
73 81 85 83 82 82 83 85 86 88 88 87 91 96 100 99 98 99 100 100 99 96 96 98 98 96 92 88 93 99 92 94 90 93 94 95 96 97
77 79 80 83 85 85 88 91 94 96 96 99 95 98 100 99 98 99 100 100 99 95 95 96 95 97 90 75 92 95 99 98 91 85 94 89 90 92
80 82 80 85 88 89 91 98 99 98 99 96 100 100 100 100 99 100 100 98 97 91 92 94 96 93 80 68 89 94 95 99 97 96 93 88 88 93
94 90 90 94 95 96 91 95 93 92 96 96 97 99 100 100 100 100 100 96 92 92 86 92 92 85 85 79 82 92 93 93 89 88 95 91 88 88

GFSNE_sfc_rhum_282.txt.gz
RH
63 66 61 62 68 75 88 91 98 96 84 63 64 71 89 88 86 75 64 72 83 87 86 92 94 93 91 91 90 89 88 88 90 92 94 93 94 96
50 59 58 57 61 60 72 76 82 95 96 81 80 78 74 72 73 76 74 86 84 88 89 99 99 99 98 97 94 93 92 91 90 92 94 95 96 97
58 58 60 57 56 77 75 69 74 78 92 84 78 80 81 81 75 73 73 71 61 83 90 99 100 100 99 99 99 98 97 95 94 93 95 96 96 97
60 60 58 48 60 65 70 70 77 73 82 84 68 61 65 68 66 69 61 56 70 76 89 100 99 99 99 98 98 98 98 99 99 99 99 100 99 99
59 61 59 58 59 58 59 57 55 50 57 67 75 70 64 66 77 72 83 76 68 77 90 94 95 97 98 97 98 98 99 99 100 100 100 100 100 99
61 62 57 58 62 63 57 58 53 58 56 57 60 70 76 68 78 88 94 88 87 67 85 92 94 94 94 96 96 98 99 100 100 100 100 100 100 100
57 50 55 64 73 75 58 64 65 63 59 59 64 66 70 78 84 87 86 86 88 82 85 84 90 88 92 94 94 97 97 97 98 98 98 98 98 97
53 52 52 60 63 74 83 83 82 75 77 70 70 71 65 72 78 85 86 86 95 83 92 91 91 94 96 95 98 97 96 96 95 96 97 96 96 97
54 55 53 46 71 66 72 77 75 81 85 79 83 78 77 77 79 80 78 82 84 81 88 99 90 96 97 94 95 95 95 94 94 96 97 97 98 98
60 66 68 68 68 75 70 67 69 66 67 63 72 77 76 74 79 78 86 90 88 83 87 100 100 100 98 97 94 93 94 95 95 94 95 96 97 97
62 63 64 65 71 76 73 78 75 78 66 76 79 82 84 85 86 90 96 98 97 96 100 100 100 100 100 100 99 98 98 97 96 96 97 99 100 100
63 60 69 70 79 82 72 74 82 100 89 90 86 82 81 73 84 81 87 97 97 97 100 100 100 100 100 100 100 100 100 100 100 100 100 100 100 100
74 75 67 75 79 80 84 79 88 94 97 99 98 97 94 98 100 98 89 93 98 99 98 100 100 100 100 100 100 100 100 100 100 100 100 100 100 100
77 77 73 78 85 88 87 84 85 89 94 100 100 100 100 100 100 100 100 100 100 100 99 98 100 100 100 99 98 100 100 100 100 100 100 100 100 100
73 79 82 81 81 82 81 84 86 88 94 99 99 100 97 92 81 91 83 79 90 97 99 98 98 100 100 100 98 95 97 99 100 100 100 100 100 100
76 76 79 85 85 83 80 79 80 82 84 88 91 91 87 87 86 86 91 86 98 99 98 99 98 97 100 99 97 97 97 92 100 100 100 100 100 100
83 81 81 78 78 77 76 76 79 80 83 86 91 89 85 83 80 83 91 98 99 99 97 96 97 97 98 98 97 97 97 96 100 100 99 100 100 100
83 85 88 88 86 84 84 85 84 84 82 79 81 80 84 85 85 82 91 99 99 100 95 95 95 95 94 96 97 96 99 96 100 100 100 95 96 98
80 85 90 90 89 82 82 84 87 83 76 80 84 85 88 84 98 97 98 98 100 100 98 96 97 98 95 94 99 97 93 98 100 100 100 97 96 98
72 79 83 79 78 81 82 83 84 85 86 86 90 91 98 95 98 100 98 100 100 100 99 100 100 97 93 95 96 100 92 98 92 97 97 96 96 96
76 77 78 80 82 83 85 89 93 94 91 99 94 98 100 98 98 99 99 100 99 96 97 97 99 98 92 83 98 100 100 98 90 87 96 92 93 94
79 79 78 80 85 88 90 98 99 99 96 95 99 100 100 99 99 99 100 100 100 94 92 94 100 96 94 80 92 97 96 100 94 95 94 89 90 94
90 88 89 92 94 94 90 93 96 95 96 94 97 98 100 100 100 100 100 98 92 95 91 94 95 87 89 83 83 94 99 96 84 83 96 90 89 90

GFSNE_sfc_rhum_288.txt.gz
RH
76 72 71 68 69 68 70 83 88 91 77 67 71 58 60 60 61 66 61 73 93 95 92 88 88 91 89 87 88 88 88 88 87 88 90 93 91 90
65 71 69 67 68 67 70 69 69 78 84 65 61 60 57 50 54 64 62 71 76 88 88 78 77 86 89 87 88 87 88 88 89 88 88 87 92 92
68 67 69 67 68 68 73 68 67 70 77 65 62 58 59 58 58 62 61 61 61 75 76 75 76 80 92 91 90 89 91 94 93 94 95 91 89 93
66 67 67 56 68 73 70 69 72 68 75 81 68 66 63 61 63 64 60 55 67 62 72 70 71 79 92 93 92 92 90 91 92 93 94 96 97 97
65 67 66 66 70 71 73 74 72 70 73 77 77 68 67 66 68 67 69 71 58 65 66 68 73 91 84 92 90 88 86 91 92 91 92 96 98 97
67 68 66 68 72 78 70 73 70 81 71 70 74 75 77 72 75 82 83 75 74 60 65 72 77 74 73 85 90 89 89 93 94 94 94 96 99 98
66 58 63 72 79 76 72 78 77 74 76 71 74 73 73 75 80 83 84 82 73 72 81 78 73 77 79 79 90 90 91 93 94 94 95 93 95 96
65 64 62 64 69 72 69 78 82 80 81 81 83 84 80 79 83 84 89 94 92 79 80 83 74 81 78 83 93 93 92 92 93 94 95 96 97 96
66 67 62 54 67 59 63 77 77 80 81 78 82 83 83 81 83 85 83 86 90 84 86 94 84 89 84 91 94 92 93 93 92 93 94 95 97 97
69 68 65 63 63 72 75 75 73 70 71 66 72 75 77 74 76 77 87 92 90 87 88 97 88 97 93 92 93 96 97 98 97 97 97 98 98 97
62 66 67 66 68 77 79 79 78 81 70 76 79 81 82 83 84 92 98 98 97 98 96 96 100 97 95 100 99 100 100 100 99 98 98 99 100 100
70 67 73 74 74 79 80 83 93 90 89 89 86 86 86 88 88 89 96 98 98 98 100 100 94 99 99 100 100 100 100 100 100 99 100 99 98 99
76 78 73 76 77 79 82 85 89 87 91 92 92 93 91 91 93 94 94 99 98 98 92 98 99 96 99 99 100 100 100 100 100 100 100 100 100 99
78 80 76 79 81 82 84 84 86 88 90 96 98 97 95 93 93 94 96 97 97 98 97 96 100 99 98 98 99 100 100 100 100 100 100 100 100 100
78 80 81 81 83 85 85 85 86 89 92 96 93 92 92 91 89 91 91 92 92 91 92 98 99 99 99 99 99 99 99 100 100 100 99 99 99 100
78 82 84 88 85 85 83 83 86 87 92 98 97 94 91 91 91 92 98 94 97 92 91 99 99 99 98 99 99 99 99 99 100 99 99 98 98 98
84 86 88 85 84 84 84 84 85 87 90 97 98 98 95 92 94 93 98 96 98 97 98 99 99 100 99 99 99 99 99 99 99 99 96 97 98 98
88 87 86 87 89 88 89 90 92 92 93 98 98 98 98 98 98 97 98 99 98 98 99 100 99 99 99 98 99 99 99 99 98 98 98 94 96 98
84 85 88 89 91 92 92 94 96 92 88 95 98 98 98 98 98 98 98 98 98 98 100 100 99 99 95 97 99 99 97 98 97 97 97 96 96 97
82 86 88 90 95 97 96 97 97 97 96 97 97 98 98 98 98 98 98 99 99 99 99 99 99 98 97 98 98 99 97 96 94 96 97 97 98 98
88 89 90 96 97 97 96 97 97 97 97 98 97 98 99 98 98 98 98 99 99 98 97 98 99 98 98 85 93 96 97 98 95 94 99 96 96 97
91 93 92 94 97 97 97 97 96 96 98 97 98 99 98 98 98 98 99 99 98 96 98 99 99 97 92 84 96 96 96 97 96 97 97 94 98 98
94 95 96 97 94 97 97 97 97 97 98 98 98 98 98 98 98 99 100 99 98 96 97 97 94 94 96 91 90 95 95 96 90 90 96 89 90 87